Regional Weather Roundup
Issued by NWS San Diego, CA

Home | Current Version | Previous Version | Text Only | Print | Product List | Glossary On
Versions: 1 2 3 4 5 6 7 8 9 10 11 12 13 14 15 16 17 18 19 20 21 22 23 24 25 26 27 28 29 30 31 32 33 34 35 36 37 38 39 40 41 42 43 44 45 46 47 48 49 50
000
ASUS46 KSGX 010210
RWRSGX

SAN DIEGO HOURLY WEATHER ROUNDUP
NATIONAL WEATHER SERVICE SAN DIEGO CA
700 PM PDT THU JUL 31 2014

NOTE: "FAIR" INDICATES FEW OR NO CLOUDS BELOW 12,000 FEET WITH NO
SIGNIFICANT WEATHER AND/OR OBSTRUCTIONS TO VISIBILITY.

CAZ042-043-060-061-PZZ750-775-010300-

GREATER SAN DIEGO AREA

CITY           SKY/WX    TMP DP  RH WIND       PRES   REMARKS
LINDBERGH FLD  PTCLDY    74  65  73 W10       29.89R
POINT LOMA       N/A     72  65  79 W18         N/A
NATIONAL CITY    N/A     76  67  73 NW2       29.88R
CHULA VISTA      N/A     76  69  78 W1        29.81R
IMPERIAL BEACH PTCLDY    73  66  78 W9        29.89R
BROWN FIELD    CLEAR     74  63  68 VRB7      29.88S
MIRAMAR MCAS   PTCLDY    74  63  68 W8        29.88R
MONTGOMERY FLD CLEAR     76  64  66 W7        29.88R

$$

NORTH SAN DIEGO COUNTY

CITY           SKY/WX    TMP DP  RH WIND       PRES   REMARKS
CAMP PENDLETON PTCLDY    74  64  71 S7        29.86R
OCEANSIDE AP   CLEAR     73  66  78 SW6       29.86R
VISTA            N/A     76  68  74 SW3       29.84R
CARLSBAD       CLEAR     72  65  78 SW3       29.87R
DEL MAR          N/A     73  68  86 CALM      29.89S
LA JOLLA SCRIP   N/A     71  68  91 W3        29.85S
FALLBROOK        N/A     76  69  79 S5        29.85R
ESCONDIDO        N/A     82  66  57 W9        29.87R
SAN MARCOS       N/A     77  66  70 CALM      29.84R
POWAY            N/A     80  65  58 W3        29.87R
R. PENASQUITOS   N/A     78  65  65 SW6       29.87R

$$

EAST SAN DIEGO COUNTY

CITY           SKY/WX    TMP DP  RH WIND       PRES   REMARKS
RAMONA         CLEAR     85  60  42 NW7       29.90S
SANTEE LAKES     N/A     80  66  61 W10       29.86R
GILLESPIE FLD  FAIR      82  61  47 W9        29.88R
LA MESA          N/A     80  67  65 NW3       29.80S
JAMUL            N/A     82  67  60 W1        29.84R
DESCANSO N       N/A     85  54  33 CALM      29.71S
MT. LAGUNA OBS   N/A     80  46  29 W3        29.77F
CAMPO            N/A     89  54  30 W15       29.92S

$$

ORANGE COUNTY AND THE LOS ANGELES BASIN

CITY           SKY/WX    TMP DP  RH WIND       PRES   REMARKS
JOHN WAYNE AP  PTCLDY    80  62  54 W6        29.85R
LAGUNA BEACH     N/A     75  67  75 SW3       29.82R
LAKE FOREST FR   N/A     83  58  43 CALM      29.75R
SANTA ANA        N/A     84  66  54 CALM      29.80R
HUNTINGTON BCH   N/A     71  66  84 W15       29.86S
LOS ALAMITOS   PTCLDY    80  63  55 W8        29.84S
FULLERTON      CLEAR     82  59  45 W7        29.83R
LONG BEACH     CLEAR     76  61  59 W13       29.85R
L.A. AP        PTCLDY    70  61  73 W12       29.86S
L.A. DOWNTOWN  CLEAR     76  60  57 SW6       29.84S

$$

THE INLAND EMPIRE

CITY           SKY/WX    TMP DP  RH WIND       PRES   REMARKS
CORONA         CLEAR     87  60  40 W12G20    29.83R
CHINO          PTCLDY    86  62  44 W14       29.84S
ONTARIO        PTCLDY    91  61  36 SW12      29.84S
RIVERSIDE AP   CLEAR     91  59  33 W10G18    29.84R
RIV CYN CREST    N/A     93  67  42 W5        29.82S HX  96
MORENO VALLEY    N/A     94  57  29 SW3         N/A
MARCH ARB      CLEAR     92  56  29 NW13      29.89R
HORSETHIEF CYN   N/A     96  49  20 NW7       29.82S
PERRIS           N/A     93  54  26 W7        29.82R
MENIFEE          N/A     93  63  37 SE6       29.90R
HEMET EAST       N/A     96  53  23 CALM      29.79S
FRENCH VALLEY  FAIR      86  63  45 SW7       29.89R
TEMECULA         N/A     88  61  39 SW5       29.79R

$$

SAN BERNARDINO AND RIVERSIDE COUNTY MOUNTAINS

CITY           SKY/WX    TMP DP  RH WIND       PRES   REMARKS
BIG BEAR AP    CLEAR     75  36  23 SW8       30.29S
BIG BEAR SHEA    N/A     78  32  19 W3        29.87F
ANGELUS OAKS     N/A     82  51  34 CALM      29.71S
PINE COVE        N/A     77  51  39 W3        29.83R

$$

SOUTHERN DESERT INCLUDING THE COACHELLA VALLEY

CITY           SKY/WX    TMP DP  RH WIND       PRES   REMARKS
PALM SPRINGS   PTCLDY   108  54  16 E8        29.74S HX 106
THOUSAND PALMS   N/A    107  53  16 SE5       29.69S HX 105
THERMAL        MOCLDY   106  55  18 SE5       29.67S HX 105
BLYTHE           N/A    N/A N/A N/A MISG      29.71S
IMPERIAL AP    MOCLDY   103  67  31 SE16      29.69S HX 108
EL CENTRO NAS  MOCLDY   102  68  33 SE13      29.69S HX 108
YUMA AZ        MOCLDY   101  60  25 S13       29.75R HX 101
MEXICALI       MOCLDY    97  70  41 SE13      29.73  HX 103

$$

UPPER DESERT

CITY           SKY/WX    TMP DP  RH WIND       PRES   REMARKS
VICTORVILLE AP PTCLDY    99  41  13 W13G23    29.93R
HESPERIA         N/A     92  49  22 W7        29.86S
APPLE VALLEY     N/A     93  44  18 S6G18     30.00S
GRAY BUTTE AP  NOT AVBL
PALMDALE       CLEAR     94  51  23 W22       29.93R
LANCASTER      SUNNY     94  47  20 SW21G26   29.92R
EDWARDS AFB    PTCLDY    99  46  16 SW18      29.88R HX  95
DAGGETT        CLEAR    106  40  10 W13       29.81S HX 100
29 PALMS N     MOCLDY   102  46  15 SW18      29.91R HX  98
NEEDLES        CLOUDY   110  44  11 SW13      29.73R HX 105

$$

REGIONAL REPORTS

CITY           SKY/WX    TMP DP  RH WIND       PRES   REMARKS
SANTA BARBARA  SUNNY     71  61  70 CALM      29.84F
SANDBERG       SUNNY     87  45  23 N13G22    30.12S
MT. WILSON       N/A     82  48  30 SW8         N/A
LAS VEGAS NV   MOCLDY   105  37   9 SW16G26   29.79S HX  99
PHOENIX AZ     MOCLDY   107  52  16 NW17      29.78R HX 105
TIJUANA        PTCLDY    75  61  60 W9        29.90
ENSENADA NW      N/A     70  32  24 W3        29.88R

$$

OFFSHORE ISLANDS

CITY           SKY/WX    TMP DP  RH WIND       PRES   REMARKS
CATALINA ARPT  CLEAR     73  54  51 W16       29.92S
SAN NICOLAS IS SUNNY    N/A N/A N/A W18       29.89S

$$

MARINE AND OFFSHORE BUOY REPORTS

STATION/POSITION SKY/WX   TEMP    WIND        PRES    SWELL
                          AIR SEA DIR/SP/G            HT/PER/DIR
                          (F)     (DEG/KT/KT) (MB)    (FT/S/D)
TANNER BANKS               65 67  310/ 19/ 21 1012.5F   3/190/13
S CLEMENTE BASIN           68 71  300/ 16/ 19 1011.5R   2/200/13
SAN NICOLAS IS.               66                N/A     2/170/13
SO. S. ROSA ISLA           64 66  300/ 19/ 23 1011.6F   2/ 8
W. S. BARBARA CH           62 61  300/ 19/ 25 1011.2F   2/320/ 8
M. S. BARBARA CH           63 67  260/ 14/ 16 1011.4F
S. MONICA BASIN            67 68  270/ 14/ 16 1010.6F   2/210/13
S PEDRO CHANNEL               69                N/A     2/170/12
DANA POINT                    71                N/A     2/170/13
CMP PENDLETON NS              72                N/A     2/210/17
OCEANSIDE OFFSHR              73                N/A     2/220/17
TORREY PINES OTR              73                N/A     2/220/14
LA JOLLA 1                 71 74  310/  5/  7 1011.8R
MISSION BAY BUOY              73                N/A     2/210/17
SAN DIEGO BAY                 76              1012.1R
POINT LOMA SOUTH              73                N/A     2/170/12

$$




USA.gov is the U.S. government's official web portal to all federal, state and local government web resources and services.